Tracking 25995 objects as of 19-Aug-2022
HD Live streaming from Space Station
objects crossing your sky now

THOR ABLESTAR DEB

Track THOR ABLESTAR DEB now!
10-day predictions


NORAD ID: 48816
Int'l Code: 1961-015MU
Perigee: 812.3 km
Apogee: 960.0 km
Inclination: 66.8 °
Period: 102.5 minutes
Semi major axis: 7257 km
RCS: Unknown
Launch date: June 29, 1961
Source: United States (US)
Launch site: AIR FORCE EASTERN TEST RANGE (AFETR)

Note: This is SATELLITE DEBRIS
aabbcc
Your satellite tracking list
Your tracking list is empty




NASA's NSSDC Master Catalog

Two Line Element Set (TLE):
1 48816U 61015MU  22221.21278748  .00000237  00000-0  18987-3 0  9996
2 48816  66.8085 189.9918 0101793 126.6614 234.3882 14.04275400447848
Source of the keplerian elements: AFSPC